Location: Pel�-Koumbol�
(14.9505°N, 3.0798°W)
Time: 08:04:43
(UTC+00:00)

Cosmos 1943 - Pass Details

Date: 17 February 2020
Orbit: 832 x 852 km, 71.0° (Epoch: 06 April)

Event Time Altitude Azimuth Distance (km) Brightness Sun altitude
Rises 04:49:47 0° 193° (SSW) 3,364 6.3 -26.2°
Reaches altitude 10° 04:52:13 10° 192° (SSW) 2,430 5.5 -25.6°
Maximum altitude 04:57:47 80° 106° (ESE) 845 3.2 -24.2°
Drops below altitude 10° 05:03:22 10° 19° (NNE) 2,435 5.7 -22.9°
Sets 05:05:48 0° 19° (NNE) 3,370 6.5 -22.3°
